| time (UTC) | temp F | wind direction | speed MPH | gust MPH | rain 1hr in | rain 24hr in | rain mn in | humidity % | barometer mb |
| 20260906024812 | 64 | 252 | 0.0 | 0.0 | 0.17 | 0.00 | 0.45 | 99 | 1015.5 |
| 20260906023612 | 64 | 48 | 0.0 | 0.0 | 0.16 | 0.00 | 0.42 | 99 | 1015.7 |
| 20260906022411 | 65 | 48 | 0.0 | 0.0 | 0.15 | 0.00 | 0.39 | 99 | 1015.8 |
| 20260906021211 | 64 | 44 | 0.0 | 0.0 | 0.16 | 0.00 | 0.36 | 99 | 1016.1 |
| 20260906020012 | 64 | 132 | 0.0 | 0.0 | 0.16 | 0.00 | 0.31 | 99 | 1016.3 |
| 20260906014813 | 64 | 74 | 0.0 | 0.0 | 0.24 | 0.00 | 0.28 | 99 | 1016.2 |
| 20260906013613 | 65 | 44 | 0.0 | 2.0 | 0.21 | 0.00 | 0.25 | 99 | 1016.2 |
| 20260906012413 | 64 | 84 | 2.0 | 4.0 | 0.19 | 0.00 | 0.23 | 99 | 1015.9 |
| 20260906011212 | 65 | 285 | 0.0 | 1.0 | 0.14 | 0.00 | 0.18 | 99 | 1015.9 |
| 20260906010012 | 65 | 244 | 0.0 | 0.0 | 0.11 | 0.00 | 0.15 | 99 | 1016.3 |
| 20260906000012 | 65 | 197 | 2.0 | 2.0 | 0.02 | 0.00 | 0.04 | 99 | 1016.4 |
| 20260905234813 | 65 | 197 | 2.0 | 2.0 | 0.02 | 0.00 | 0.04 | 99 | 1016.4 |
| 20260905233615 | 65 | 266 | 1.0 | 1.0 | 0.02 | 0.00 | 0.03 | 99 | 1016.2 |
| 20260905232413 | 65 | 233 | 0.0 | 1.0 | 0.02 | 0.00 | 0.03 | 99 | 1016.5 |
| 20260905231214 | 65 | 214 | 0.0 | 1.0 | 0.02 | 0.00 | 0.03 | 99 | 1016.3 |
| 20260905230012 | 65 | 274 | 0.0 | 1.0 | 0.02 | 0.00 | 0.02 | 99 | 1016.4 |
| 20260905224814 | 65 | 265 | 2.0 | 2.0 | 0.02 | 0.00 | 0.02 | 99 | 1016.4 |
| 20260905223612 | 65 | 243 | 1.0 | 2.0 | 0.01 | 0.00 | 0.01 | 99 | 1016.1 |
| 20260905222413 | 65 | 212 | 1.0 | 2.0 | 0.01 | 0.00 | 0.01 | 99 | 1016.1 |
| 20260905221213 | 65 | 221 | 1.0 | 2.0 | 0.00 | 0.00 | 0.00 | 99 | 1015.8 |
| 20260905220012 | 65 | 233 | 2.0 | 3.0 | 0.00 | 0.00 | 0.00 | 99 | 1015.8 |
| 20260905214812 | 65 | 257 | 1.0 | 2.0 | 0.00 | 0.00 | 0.00 | 99 | 1015.7 |
| 20260905213612 | 65 | 202 | 1.0 | 2.0 | 0.00 | 0.00 | 0.00 | 99 | 1015.8 |
| 20260905212414 | 65 | 239 | 0.0 | 1.0 | 0.00 | 0.00 | 0.00 | 99 | 1015.9 |
| 20260905211211 | 65 | 257 | 0.0 | 0.0 | 0.00 | 0.00 | 0.00 | 99 | 1015.7 |
| 20260905210013 | 65 | 225 | 1.0 | 1.0 | 0.00 | 0.00 | 0.00 | 99 | 1015.6 |
| 20260905204813 | 65 | 189 | 1.0 | 2.0 | 0.00 | 0.00 | 0.00 | 99 | 1015.7 |
| 20260905203613 | 65 | 218 | 1.0 | 2.0 | 0.00 | 0.00 | 0.00 | 99 | 1015.7 |
| 20260905202414 | 65 | 273 | 2.0 | 2.0 | 0.00 | 0.00 | 0.00 | 99 | 1015.5 |
| 20260905201215 | 65 | 205 | 1.0 | 2.0 | 0.00 | 0.00 | 0.00 | 99 | 1015.2 |
| 20260905200014 | 65 | 219 | 2.0 | 2.0 | 0.00 | 0.00 | 0.00 | 99 | 1015.4 |
| 20260905194812 | 65 | 242 | 2.0 | 2.0 | 0.00 | 0.00 | 0.00 | 99 | 1015.5 |
| 20260905193613 | 65 | 228 | 2.0 | 2.0 | 0.00 | 0.00 | 0.00 | 99 | 1015.5 |
| 20260905192414 | 65 | 223 | 0.0 | 2.0 | 0.00 | 0.00 | 0.00 | 99 | 1015.7 |
| 20260905191213 | 65 | 223 | 0.0 | 0.0 | 0.00 | 0.00 | 0.00 | 99 | 1015.5 |
| 20260905190013 | 65 | 225 | 1.0 | 2.0 | 0.00 | 0.00 | 0.00 | 99 | 1015.4 |
| 20260905184815 | 65 | 191 | 1.0 | 2.0 | 0.00 | 0.00 | 0.00 | 99 | 1015.5 |
| 20260905183614 | 65 | 201 | 2.0 | 3.0 | 0.00 | 0.00 | 0.00 | 99 | 1015.7 |
| 20260905182412 | 65 | 224 | 0.0 | 1.0 | 0.00 | 0.00 | 0.00 | 99 | 1015.6 |
| 20260905181212 | 65 | 231 | 2.0 | 2.0 | 0.00 | 0.00 | 0.00 | 99 | 1015.5 |
| 20260905180013 | 65 | 224 | 2.0 | 3.0 | 0.00 | 0.00 | 0.00 | 99 | 1015.7 |
| 20260905174813 | 65 | 223 | 1.0 | 2.0 | 0.00 | 0.00 | 0.00 | 99 | 1015.7 |
| 20260905173612 | 65 | 213 | 3.0 | 3.0 | 0.00 | 0.00 | 0.00 | 99 | 1015.7 |
| 20260905172414 | 65 | 267 | 2.0 | 2.0 | 0.00 | 0.00 | 0.00 | 99 | 1015.7 |
| 20260905171214 | 65 | 220 | 1.0 | 2.0 | 0.00 | 0.00 | 0.00 | 99 | 1015.7 |
| 20260905170012 | 65 | 212 | 2.0 | 2.0 | 0.00 | 0.00 | 0.00 | 99 | 1015.6 |
| 20260905164812 | 65 | 232 | 2.0 | 3.0 | 0.00 | 0.00 | 0.00 | 99 | 1015.5 |
| 20260905163614 | 65 | 208 | 1.0 | 2.0 | 0.00 | 0.00 | 0.00 | 99 | 1015.7 |
| 20260905162413 | 65 | 197 | 2.0 | 3.0 | 0.00 | 0.00 | 0.00 | 99 | 1015.6 |
| 20260905161212 | 65 | 244 | 3.0 | 4.0 | 0.00 | 0.00 | 0.00 | 99 | 1015.2 |
| 20260905160012 | 65 | 223 | 3.0 | 4.0 | 0.00 | 0.00 | 0.00 | 99 | 1015.7 |
| 20260905154814 | 65 | 191 | 2.0 | 3.0 | 0.00 | 0.00 | 0.00 | 99 | 1015.4 |
| 20260905153614 | 65 | 287 | 4.0 | 4.0 | 0.00 | 0.00 | 0.00 | 98 | 1015.5 |
| 20260905152414 | 66 | 270 | 1.0 | 2.0 | 0.00 | 0.00 | 0.00 | 98 | 1015.4 |
| 20260905145928 | 66 | 244 | 2.0 | 2.0 | 0.00 | 0.20 | 0.20 | 97 | 1015.5 |
| 20260905123919 | 69 | 256 | 1.0 | 3.0 | 0.00 | 0.00 | 0.20 | 99 | 1014.9 |
| 20260905122719 | 68 | 122 | 4.0 | 13.0 | 0.00 | 0.00 | 0.20 | 98 | 1014.8 |
| 20260905122402 | 68 | 50 | 3.0 | 6.0 | 0.00 | 0.33 | 0.20 | 99 | 1014.8 |
| 20260905121203 | 68 | 259 | 0.0 | 1.0 | 0.00 | 0.33 | 0.20 | 99 | 1014.9 |
| 20260905120003 | 68 | 269 | 1.0 | 2.0 | 0.00 | 0.33 | 0.20 | 99 | 1014.9 |
| 20260905114802 | 68 | 244 | 0.0 | 0.0 | 0.00 | 0.34 | 0.20 | 99 | 1014.8 |
| 20260905113604 | 67 | 271 | 1.0 | 1.0 | 0.00 | 0.35 | 0.20 | 99 | 1014.6 |
| 20260905112402 | 67 | 278 | 2.0 | 3.0 | 0.00 | 0.35 | 0.20 | 99 | 1014.6 |
| 20260905111202 | 68 | 267 | 2.0 | 3.0 | 0.00 | 0.36 | 0.20 | 99 | 1014.4 |
| 20260905110002 | 67 | 262 | 2.0 | 2.0 | 0.00 | 0.36 | 0.20 | 99 | 1014.4 |
| 20260905104801 | 68 | 272 | 2.0 | 2.0 | 0.00 | 0.36 | 0.20 | 99 | 1014.3 |
| 20260905103602 | 68 | 220 | 0.0 | 0.0 | 0.00 | 0.37 | 0.20 | 99 | 1014.1 |
| 20260905102403 | 68 | 230 | 2.0 | 2.0 | 0.00 | 0.38 | 0.20 | 99 | 1014.2 |
| 20260905101202 | 68 | 312 | 2.0 | 3.0 | 0.00 | 0.38 | 0.20 | 99 | 1014.0 |
| 20260905100003 | 68 | 245 | 0.0 | 0.0 | 0.00 | 0.38 | 0.20 | 99 | 1013.6 |
| 20260905094802 | 69 | 211 | 1.0 | 1.0 | 0.00 | 0.38 | 0.20 | 99 | 1013.4 |
| 20260905093601 | 69 | 242 | 1.0 | 2.0 | 0.00 | 0.38 | 0.20 | 99 | 1013.3 |
| 20260905092401 | 69 | 257 | 1.0 | 2.0 | 0.00 | 0.38 | 0.20 | 99 | 1013.3 |
| 20260905091201 | 70 | 152 | 2.0 | 3.0 | 0.00 | 0.38 | 0.20 | 99 | 1013.3 |
| 20260905090003 | 71 | 225 | 1.0 | 1.0 | 0.00 | 0.38 | 0.20 | 99 | 1013.0 |
| 20260905084802 | 71 | 108 | 0.0 | 0.0 | 0.00 | 0.38 | 0.20 | 98 | 1013.0 |
| 20260905083602 | 71 | 110 | 0.0 | 0.0 | 0.00 | 0.38 | 0.20 | 99 | 1012.9 |
| 20260905082402 | 72 | 286 | 0.0 | 0.0 | 0.00 | 0.38 | 0.20 | 97 | 1012.6 |
| 20260905081201 | 71 | 146 | 0.0 | 2.0 | 0.00 | 0.38 | 0.20 | 98 | 1012.6 |
| 20260905080002 | 71 | 172 | 2.0 | 3.0 | 0.00 | 0.38 | 0.20 | 98 | 1012.6 |
| 20260905074803 | 72 | 165 | 1.0 | 2.0 | 0.00 | 0.38 | 0.20 | 96 | 1012.5 |
| 20260905073603 | 74 | 117 | 0.0 | 1.0 | 0.00 | 0.38 | 0.20 | 92 | 1012.4 |
| 20260905072402 | 75 | 58 | 0.0 | 0.0 | 0.00 | 0.38 | 0.20 | 91 | 1012.3 |
| 20260905071201 | 74 | 58 | 0.0 | 0.0 | 0.00 | 0.38 | 0.20 | 92 | 1012.3 |
| 20260905070002 | 74 | 91 | 0.0 | 1.0 | 0.00 | 0.38 | 0.20 | 92 | 1012.1 |
| 20260905064802 | 74 | 27 | 1.0 | 2.0 | 0.00 | 0.38 | 0.20 | 88 | 1012.2 |
| 20260905063603 | 74 | 3 | 0.0 | 1.0 | 0.00 | 0.38 | 0.20 | 88 | 1012.1 |
| 20260905062403 | 74 | 359 | 0.0 | 1.0 | 0.00 | 0.38 | 0.20 | 89 | 1012.1 |
| 20260905061202 | 74 | 308 | 3.0 | 5.0 | 0.00 | 0.38 | 0.20 | 89 | 1012.4 |
| 20260905060002 | 76 | 103 | 1.0 | 3.0 | 0.00 | 0.38 | 0.20 | 87 | 1012.2 |
| 20260905054802 | 74 | 285 | 0.0 | 1.0 | 0.00 | 0.38 | 0.20 | 90 | 1012.3 |
| 20260905053604 | 73 | 330 | 1.0 | 2.0 | 0.00 | 0.38 | 0.20 | 92 | 1012.2 |
| 20260905052403 | 72 | 327 | 2.0 | 3.0 | 0.00 | 0.38 | 0.20 | 93 | 1012.2 |
| 20260905051203 | 73 | 6 | 0.0 | 1.0 | 0.00 | 0.38 | 0.20 | 93 | 1012.2 |
| 20260905050002 | 72 | 303 | 3.0 | 5.0 | 0.00 | 0.38 | 0.20 | 93 | 1012.1 |
| 20260905044802 | 73 | 300 | 2.0 | 3.0 | 0.00 | 0.38 | 0.20 | 93 | 1012.1 |
| 20260905043602 | 71 | 308 | 0.0 | 2.0 | 0.00 | 0.38 | 0.20 | 95 | 1012.0 |
| 20260905042403 | 70 | 302 | 1.0 | 2.0 | 0.00 | 0.38 | 0.20 | 96 | 1012.0 |
| 20260905041202 | 70 | 302 | 0.0 | 1.0 | 0.00 | 0.38 | 0.20 | 98 | 1012.1 |
| 20260905040002 | 71 | 44 | 1.0 | 2.0 | 0.00 | 0.38 | 0.20 | 95 | 1012.3 |
| 20260905034802 | 70 | 103 | 2.0 | 3.0 | 0.00 | 0.38 | 0.20 | 96 | 1012.2 |
| 20260905033603 | 72 | 93 | 2.0 | 3.0 | 0.00 | 0.38 | 0.20 | 95 | 1012.3 |
| 20260905032403 | 70 | 53 | 3.0 | 5.0 | 0.00 | 0.38 | 0.20 | 95 | 1012.2 |
| 20260905031202 | 70 | 21 | 3.0 | 6.0 | 0.01 | 0.38 | 0.20 | 97 | 1012.2 |
| 20260905030003 | 69 | 20 | 5.0 | 8.0 | 0.01 | 0.38 | 0.20 | 98 | 1012.5 |